STARLINK-11718

Satellite information

Favourite Embed

Satellite Type and Status

PAYLOADIN ORBIT

Key statistics

Satellite STARLINK-11718 at a glance.

Uptime

203

Days in orbit

Revolutions

≈ 15.7

Per day

Orbit

LEO

Low Earth Orbit

Inclination

43.0

Latest

Satellite identification and parameters

Extended collection of information and parameters for STARLINK-11718.

Object identification

Identified? True

Debris? False

Object name: STARLINK-11718

International designator: 2025-111K

Object number (NORAD): 64132

Object ID (CCSDS): 64132

Country: UNITED STATES OF AMERICA (US)

Current information (Y/N): Y

RCS size: LARGE

Orbital parameters

Period: 91.666 minutes

Inclination: 42.9994 deg

SMA: 6734.383 km

Apoapsis: 357.282 km

Periapsis: 355.215 km

RAAN: 147.7458 deg

Eccentricy: 0.00015349

Argument of periapsis: 36.1314 deg

Mean anomaly: 323.9657 deg

Mean motion: 15.70927002 rev/day

Mean motion (dot): 0.00393898 rev/day2

B* drag term: 0.0029193991 1/REarth

Two-line elements (TLE)

Creation date: Dec. 11, 2025, 10:54 a.m.

Reference frame: TEME

Reference center: EARTH

Epoch: Dec. 11, 2025, 4:06 a.m. UTC

TLE line 0: 0 STARLINK-11718

TLE line 1: 1 64132U 25111K 25345.17091491 .00393898 00000-0 29194-2 0 9994

TLE line 2: 2 64132 42.9994 147.7458 0001535 36.1314 323.9657 15.70927002 32769

Live tracking on map

Real-time ground track for satellite STARLINK-11718.

In-orbit conjunctions

There are no conjunctions computed for STARLINK-11718, at the moment. Check back to stay up to date, as we update our databases every day.

Go to all conjunctions

Associated space launch

A batch of 23 satellites for the Starlink mega-constellation - SpaceX's project for space-based Internet communication system.

STARLINK-11718 was lifted into orbit during the mission ‘Falcon 9 Block 5 | Starlink Group 12-22’, on board a Falcon 9 space rocket.

The launch took place on May 24, 2025, 5:19 p.m. from Space Launch Complex 40.

For more information about the launch, click the button.

Launch to space Falcon 9 Block 5 | Starlink Group 12-22
Falcon 9 Block 5 | Starlink Group 12-22

Agency: SpaceX

Status: Launch Successful

Launch date: May 24, 2025, 5:19 p.m. UTC

Rocket: Falcon 9

Launch pad: Space Launch Complex 40

Location: Cape Canaveral SFS, FL, USA

...

Latest news about this satellite

News about space launch
Launch Roundup: SpaceX to start new Starlink shell; China, Russia to launch unknown payloads

This week, SpaceX will begin building a new shell for its Starlink constellation, launching from… The post Launch Roundup: SpaceX to start new Starlink shell; China, Russia to launch unknown payloads appeared first on NASASpaceFlight.com.


Newsletter sign-up

Weekly statistics, charts and insights to help you stay on top of the space industry.